Welcome to the New NWS' Forecast!
Most changes are behind the scenes, but click here for differences you might notice.
Latest weather observations around

Harrison, Boone County Airport (KHRO)

Using English Units (Switch to International System of Units)
Date/ Time (CDT) Wind (mph) Vis. (mi) Weather Sky Cond. Temp (°F) Rel. Humidity Wind Chill (°F) Heat Index (°F) Pressure Precip. (in)
Air Dwpt 6 hour Altimeter (inHg) Sea level (inHg) 1 hr 3 hr 6 hr
Max Min
Apr 28 05:53 SE 10 10 Mostly Cloudy BKN100 53 51     93%     29.75 29.72 0    
Apr 28 04:53 SSE 14 10 Mostly Cloudy BKN100 BKN120 53 51     93%     29.77 29.75      
Apr 28 03:53 ESE 5 10 Mostly Cloudy BKN110 54 50     86%     29.8 29.78      
Apr 28 02:53 ESE 9 10 Mostly Clear FEW022 54 50     86%     29.79 29.77      
Apr 28 01:53 SE 8 10 Clear CLR 55 50     83%     29.81 29.78      
Apr 28 00:53 ESE 8 10 Clear CLR 56 49     77%     29.79 29.77      
Apr 27 23:53 SSE 8 10 Mostly Clear FEW110 57 48     72%     29.8 29.78      
Apr 27 22:53 SE 8 10 Mostly Clear FEW110 57 47     69%     29.78 29.76      
Apr 27 21:53 SE 11 10 Mostly Clear FEW120 58 46     65%     29.76 29.74      
Apr 27 20:53 ESE 9 10 Clear CLR 59 47     64%     29.75 29.74      
Apr 27 19:53 SE 8 10 Mostly Clear FEW110 61 48     62%     29.74 29.72      
Apr 27 18:53 SE 9 10 Partly Cloudy SCT120 64 48     56%     29.72 29.71      
Apr 27 17:53 SE 11 10 Clear CLR 66 47     50%     29.72 29.71      
Apr 27 16:53 SSE 11 10 Clear CLR 66 44     45%     29.74 29.72      
Apr 27 15:53 SSE 9 10 Clear CLR 66 44     45%     29.75 29.74      
Apr 27 14:53 ESE 7 10 Clear CLR 63 44     50%     29.78 29.77      
Apr 27 13:53 SSW 5 10 Clear CLR 62 43     50%     29.8 29.79      
Apr 27 12:53 5 10 Clear CLR 59 43     55%     29.82 29.81      
Apr 27 11:53 WNW 8 10 Clear CLR 56 40     55%     29.84 29.83      
Apr 27 10:53 WSW 8 10 Clear CLR 54 42     64%     29.83 29.82      
Apr 27 09:53 NW 7 10 Clear CLR 51 41     68%     29.8 29.79      
Apr 27 08:53 NW 9 10 Clear CLR 48 40     73% 44   29.8 29.8      
Apr 27 07:53 WNW 8 10 Clear CLR 45 40     82% 41   29.77 29.77      
Apr 27 06:53 W 7 10 Clear CLR 41 39     93% 36   29.76 29.76      
Apr 27 05:53 WNW 6 10 Clear CLR 40 39     97% 36   29.74 29.75      
Apr 27 04:53 NW 7 10 Clear CLR 41 40     96% 36   29.7 29.7      
Apr 27 03:53 WNW 9 10 Clear CLR 42 40     92% 37   29.69 29.69      
Apr 27 02:53 WNW 10 10 Clear CLR 42 41     96% 36   29.67 29.66      
Apr 27 01:53 WNW 7 10 Clear CLR 43 41     93% 39   29.69 29.68      
Apr 27 00:53 W 10 10 Cloudy FEW011 OVC043 44 43     96% 39   29.69 29.69     0
Apr 27 00:21 WNW 8 10 Cloudy SCT008 SCT023 OVC044 44 43     96% 40   29.69        
Apr 26 23:53 WNW 9 6 Fog/Mist OVC007 44 44     100% 39   29.68 29.68      
Apr 26 22:53 WNW 13 8 Cloudy BKN009 OVC013 45 43     93% 39   29.68 29.67 0    
Apr 26 21:53   10 Cloudy BKN009 OVC013 45 44     97%     29.66 29.65 0 0  
Apr 26 21:29 NW 11 10 Cloudy BKN009 BKN013 OVC017 45 44     97% 39   29.63        
Apr 26 20:53 NW 15 10 Cloudy BKN011 OVC016 45 44     97% 38   29.59 29.58      
Apr 26 20:22 WNW 14 10 Cloudy OVC010 46 44     93% 40   29.59        
Apr 26 20:15 WNW 13 10 Cloudy BKN009 BKN015 OVC022 45 44     97% 39   29.58        
Apr 26 20:07 WNW 14 10 Cloudy BKN010 BKN016 OVC022 46 44     93% 40   29.58        
Apr 26 19:53 WNW 13 10 Cloudy SCT010 BKN023 OVC065 46 44     93% 40   29.57 29.56      
Apr 26 18:53 WNW 15 9 Cloudy BKN006 OVC012 47 46     97% 41   29.55 29.54 0   0
Apr 26 17:53 WNW 15 7 Cloudy BKN007 OVC028 49 48     97% 43   29.52 29.51 0    
Apr 26 16:53 NW 11 6 Fog/Mist BKN005 OVC022 50 50     100% 46   29.5 29.49 0    
Apr 26 16:42 NW 11 4 Light Rain and Fog/Mist BKN005 OVC013 50 50     100% 46   29.5   0    
Apr 26 16:34 WNW 10 2.5 Light Rain and Fog/Mist OVC005 51 50     96%     29.49   0    
Apr 26 15:53 WNW 9 3 Light Rain and Fog/Mist BKN005 BKN010 OVC017 52 52     100%     29.5 29.48 0 0  
Apr 26 15:47   3 Light Rain and Fog/Mist BKN005 BKN012 OVC017 54 54     100%     29.53   0    
Apr 26 15:43 WNW 9 2.5 Rain and Fog/Mist BKN004 BKN012 OVC022 53 53     100%     29.51   0    
Apr 26 15:34 3 2.5 Light Rain and Fog/Mist FEW006 BKN017 OVC024 57 57     100%     29.5   0    
Apr 26 15:20 S 9 10 Light Rain SCT005 BKN012 OVC026 57 57     100%     29.52   0    
Apr 26 14:53 S 3 10 Light Rain OVC004 57 57     100%     29.5 29.48 0    
Apr 26 13:53 6 10 Light Rain OVC003 57 57     100%     29.45   0    
Apr 26 13:30 SSE 13 5 Rain and Fog/Mist OVC003 56 56     100%     29.51   0    
Apr 26 13:12   4 Rain and Fog/Mist OVC002 56 56     100%     29.53   0    
Apr 26 13:04 SE 14 5 Light Rain and Fog/Mist OVC003 56 56     100%     29.53   0    
Apr 26 12:53 ESE 11 5 Thunderstorms and Rain and Fog/Mist BKN003 OVC030 55 55     100%     29.5 29.47 0   2
Apr 26 12:38 SE 8 4 Thunderstorms and Heavy Rain and Fog/Mist OVC003 56 56     100%     29.55   0    
Apr 26 12:19 SSE 13 7 Light Rain OVC003 56 56     100%     29.57   0    
Apr 26 11:58 SSE 8 3 Thunderstorms and Rain and Fog/Mist OVC004 55 55     100%     29.56   0    
Apr 26 11:53 SE 6 2.5 Heavy Rain and Fog/Mist OVC004 55 55     100%     29.56 29.54 0    
Apr 26 11:26 E 8 4 Heavy Rain and Fog/Mist BKN003 BKN013 OVC048 55 55     100%     29.53   0    
Apr 26 11:11 SE 11 4 Rain and Fog/Mist BKN004 BKN049 OVC070 55 55     100%     29.59   0    
Apr 26 10:58 SSE 11 2.5 Heavy Rain and Fog/Mist BKN004 BKN050 OVC075 55 55     100%     29.58   0    
Apr 26 10:53 SSE 15 3 Thunderstorms and Heavy Rain and Fog/Mist BKN004 BKN050 OVC070 55 55     100%     29.59 29.56 0    
Apr 26 10:43 SE 10 4 Thunderstorms and Rain and Fog/Mist BKN003 BKN050 OVC070 55 55     100%     29.56   0    
Apr 26 10:21 S 7 2.5 Thunderstorms and Heavy Rain and Fog/Mist BKN003 BKN036 OVC100 55 55     100%     29.57   0    
Apr 26 10:10 SE 8 2.5 Rain and Fog/Mist SCT003 BKN034 OVC100 55 55     100%     29.56   0    
Apr 26 10:05 E 9 3 Rain and Fog/Mist SCT003 BKN027 OVC100 56 56     100%     29.53   0    
Apr 26 10:03 ESE 11 2.5 Rain and Fog/Mist SCT003 BKN034 OVC100 56 56     100%     29.54   0    
Apr 26 09:53 SSE 3 1 Thunderstorms and Heavy Rain and Fog/Mist SCT003 BKN032 OVC075 56 56     100%     29.56 29.53 1 1  
Apr 26 09:35 5 1.5 Thunderstorms and Heavy Rain and Fog/Mist FEW004 BKN036 OVC075 56 56     100%     29.57   0    
Apr 26 09:29 SSE 9 4 Thunderstorms and Rain and Fog/Mist FEW007 SCT041 OVC080 56 56     100%     29.56   0    
Apr 26 09:21 Calm 2 Thunderstorms and Heavy Rain and Fog/Mist SCT043 OVC075 56 56     100%     29.54   0    
Apr 26 09:10 Calm 0.75 Thunderstorms and Heavy Rain and Fog/Mist FEW009 BKN041 OVC090 56 56     100%     29.56   0    
Apr 26 09:04 ESE 7 2.5 Thunderstorms and Heavy Rain and Fog/Mist FEW011 BKN070 OVC095 56 56     100%     29.54   0    
Apr 26 08:53 SE 7 4 Thunderstorms and Heavy Rain and Fog/Mist SCT055 BKN070 OVC090 56 56     100%     29.55 29.52 1    
Apr 26 08:38 WNW 6 3 Thunderstorms and Heavy Rain and Fog/Mist BKN042 BKN075 OVC100 56 55     97%     29.52   0    
Apr 26 08:21 3 1.5 Thunderstorms and Heavy Rain and Fog/Mist FEW008 BKN031 OVC060 57 56     96%     29.58   0    
Apr 26 08:14 SW 11 1.75 Thunderstorms and Heavy Rain and Fog/Mist FEW010 BKN035 OVC065 57 56     96%         0    
Apr 26 08:07 NW 11 5 Thunderstorms and Heavy Rain and Fog/Mist FEW010 BKN043 OVC060 57 57     100%     29.55   0    
Apr 26 07:57 N 5 5 Thunderstorms and Rain and Fog/Mist FEW002 BKN021 OVC043 58 58     100%     29.55   0    
Apr 26 07:53 N 9 4 Heavy Rain and Fog/Mist SCT002 BKN010 OVC043 58 58     100%     29.55 29.51 0    
Apr 26 07:48 NW 9 6 Rain and Fog/Mist SCT002 BKN012 OVC022 57 57     100%     29.57   0    
Apr 26 07:32 WNW 6 8 Cloudy BKN002 OVC028 58 58     100%     29.55        
Apr 26 07:23 SSE 5 8 Cloudy SCT002 BKN028 OVC041 58 58     100%     29.54        
Apr 26 07:15 SE 8 8 Cloudy SCT002 BKN031 OVC039 58 58     100%     29.54        
Apr 26 06:58 SE 7 9 Thunderstorms BKN002 BKN046 OVC055 58 58     100%     29.52        
Apr 26 06:53 SE 8 9 Cloudy BKN003 BKN046 OVC055 58 58     100%     29.52 29.49     0
Apr 26 06:51 SE 7 9 Cloudy BKN003 OVC055 57 57     100%     29.52        
Apr 26 06:24 ESE 6 10 Cloudy SCT004 OVC065 58 58     100%     29.53        
Apr 26 06:09 SE 7 10 Cloudy FEW004 BKN070 OVC085 58 57     97%     29.52        
Apr 26 05:53 SSE 7 10 Cloudy FEW007 BKN080 OVC095 57 57     100%     29.53 29.49 0    
Apr 26 05:44 SE 9 7 Light Rain FEW007 FEW060 OVC090 57 57     100%     29.52   0    
Apr 26 05:34 ESE 7 8 Thunderstorms and Rain FEW050 BKN085 OVC100 57 57     100%     29.53   0    
Apr 26 05:26 ESE 8 7 Light Rain FEW065 BKN090 OVC110 57 57     100%     29.53   0    
Apr 26 05:11 SE 15 8 Thunderstorms and Rain SCT080 OVC100 58 57     97%     29.55   0    
Apr 26 05:00 ESE 11 10 Light Rain BKN095 OVC110 58 57     97%     29.54   0    
Apr 26 04:53 ESE 8 10 Light Rain FEW080 OVC100 58 57     97%     29.54 29.5 0    
Apr 26 04:20 E 7 10 Thunderstorms and Rain OVC095 58 57     97%     29.55   0    
Apr 26 03:59 ENE 6 10 Light Rain OVC095 58 57     97%     29.55   0    
Apr 26 03:51 SE 11 10 Light Rain BKN090 OVC110 58 57     97%     29.57 29.53 0 0  
Apr 26 03:50 SE 11 10 Light Rain BKN090 OVC110 57 57     100%     29.58   0    
Apr 26 03:14 W 7 4 Thunderstorms and Rain and Fog/Mist FEW065 OVC095 58 56     93%     29.56   0    
Apr 26 02:53 W 7 7 Rain FEW050 FEW070 OVC090 58 57     97%     29.58 29.54 0    
Apr 26 02:44 W 8 7 Light Rain FEW032 SCT048 OVC085 58 57     97%     29.6   0    
Apr 26 02:34 WNW 11 3 Thunderstorms and Heavy Rain and Fog/Mist SCT035 BKN060 OVC090 59 56     90%     29.6   0    
Apr 26 02:29 WNW 9 1.75 Thunderstorms and Heavy Rain and Fog/Mist SCT029 BKN048 OVC070 59 56     90%     29.62   0    
Apr 26 02:22   2 Thunderstorms and Heavy Rain FEW024 BKN049 OVC060 61 55     81%     29.63   0    
Apr 26 02:16   6 Thunderstorms and Rain FEW027 SCT049 OVC060 65 55     70%     29.63   0    
Apr 26 01:53 SW 5 10 Mostly Cloudy FEW030 SCT035 BKN050 69 62     78%     29.55 29.5      
Apr 26 01:05 S 5 10 Cloudy BKN031 OVC035 68 62     81%     29.52        
Apr 26 00:53 S 5 10 Cloudy OVC029 70 62     76%     29.51 29.47      
Apr 26 00:28 S 3 10 Mostly Cloudy BKN029 69 61     75%     29.5        
Apr 25 23:53 SE 8 10 Partly Cloudy SCT031 69 61     75%     29.5 29.45      
Apr 25 22:53 S 7 10 Cloudy SCT035 OVC048 70 61     73%     29.53 29.49      
Apr 25 21:53 S 8 10 Mostly Cloudy SCT037 BKN047 70 61     73%     29.51 29.47      
Apr 25 20:53 S 7 10 Clear CLR 70 60     71%     29.5 29.46      
Apr 25 19:53 S 10 10 Mostly Cloudy BKN043 73 60     64%   73 29.5 29.47      
Apr 25 18:53 S 14 10 Mostly Clear FEW043 76 60     58%   76 29.5 29.47 0   0
Apr 25 17:53 S 15 10 Clear   78 60     54%   78 29.49 29.46 0    
Apr 25 16:53 S 17 10 Light Rain CLR 78 59     52%   78 29.48 29.45 0    
Apr 25 15:53 S 20 10 Clear and Windy CLR 79 58     49%   79 29.49 29.45      
Apr 25 14:53   10 Clear CLR 78 56     47%   78 29.5 29.46      
Apr 25 13:53   10 Clear CLR 75 54     48%   74 29.52 29.49      
Apr 25 12:53 S 20 10 Clear and Windy CLR 76 54     47%   75 29.54 29.51      
Apr 25 11:53   10 Clear CLR 76 55     48%   75 29.55 29.52      
Apr 25 09:53   10 Clear CLR 69 51     53%     29.59 29.56      
Apr 25 08:53 SE 10 10 Clear CLR 63 49     60%     29.61 29.58      
Apr 25 07:53 ESE 10 10 Clear CLR 56 45     67%     29.63 29.6      
Apr 25 06:53 SE 9 10 Clear CLR 52 44     74%     29.63 29.6      
Apr 25 05:53 SSE 8 10 Clear CLR 51 43     74%     29.64 29.61      
Apr 25 04:53 Calm 10 Clear CLR 50 43     77%     29.65 29.62      
Apr 25 03:53 E 6 10 Clear CLR 52 42     69%     29.66 29.63      
Apr 25 02:53 ESE 7 10 Clear CLR 51 42     71%     29.67 29.64      
Apr 25 01:53 Calm 10 Clear CLR 54 40     59%     29.69 29.66      
Apr 25 00:53 S 5 10 Clear CLR 54 41     61%     29.71 29.68      
Apr 24 23:53 SE 5 10 Clear CLR 53 40     61%     29.72 29.7      
Apr 24 22:53 SSE 3 10 Clear CLR 55 39     55%     29.72 29.7      
Apr 24 21:53 SSE 8 10 Clear CLR 59 39     47%     29.71 29.69      
Apr 24 20:53 SE 9 10 Clear CLR 63 35     35%     29.69 29.67      
Apr 24 19:53 S 8 10 Clear CLR 66 32     28%     29.71 29.69      
Apr 24 18:53 S 10 10 Clear CLR 71 31     23%   69 29.7 29.68      
Apr 24 17:53 SSE 15 10 Clear CLR 75 30     19%   73 29.71 29.69      
Apr 24 16:53 SSE 9 10 Clear CLR 77 32     19%   75 29.74 29.72      
Apr 24 15:53 ESE 10 10 Clear CLR 76 39     26%   74 29.78 29.75      
Apr 24 14:53 SE 13 10 Clear CLR 75 36     24%   73 29.81 29.79      
Apr 24 13:53 SSE 7 10 Clear CLR 72 35     26%   70 29.85 29.83      
Apr 24 12:53 SSE 9 10 Clear CLR 70 35     28%     29.9 29.88      
Apr 24 11:53 SE 7 10 Clear CLR 67 32     27%     29.95 29.93      
Apr 24 10:53 SE 10 10 Clear CLR 67        %     29.99 29.97      
Apr 24 09:53 ESE 3 10 Clear CLR 63 41     45%     29.99 29.98      
Apr 24 08:53 Calm 10 Clear CLR 57 45     64%     29.99 29.98      
Apr 24 07:53 WSW 3 10 Clear CLR 51 39     63%     30 29.98      
Apr 24 06:53 W 6 10 Clear CLR 45 35     68% 42   29.98 29.97      
Apr 24 05:53 W 3 10 Clear CLR 39 36     89% 37   29.98 29.97      
Apr 24 04:53 W 6 10 Clear CLR 41 36     82% 37   29.96 29.95      
Apr 24 03:53 WSW 3 10 Clear CLR 43 37     79% 41   29.96 29.94      
Apr 24 02:53 W 5 10 Clear CLR 43 36     76% 40   29.97 29.95      
Apr 24 01:53 Calm 9 Clear CLR 45 36     71%     29.98 29.96      
Apr 24 00:53 Calm 10 Clear CLR 50 36     58%     29.97 29.95      
Apr 23 23:53 Calm 10 Clear CLR 48 38     68%     29.97 29.96      
Apr 23 22:53 WSW 3 10 Clear CLR 50 39     66% 49   30 29.98      
Apr 23 21:53 W 3 10 Clear CLR 55 36     48%     30.02 30.01      
Apr 23 20:53 W 3 10 Clear CLR 56 36     47%     30.02 30.01      
Apr 23 19:53 NW 5 10 Clear CLR 60 35     39%     30.02 30.01      
Apr 23 18:53 N 6 10 Clear CLR 67 33     28%     30.03 30.02      
Apr 23 17:53 NNW 10 10 Clear CLR 68 33     27%     30.03 30.02      
Apr 23 16:53 NW 9 10 Clear CLR 69 34     27%     30.02 30.01      
Apr 23 15:53 NNW 10 10 Clear CLR 69 33     26%     30.03 30.01      
Apr 23 14:53 N 10 10 Clear CLR 68 34     28%     30.05 30.03      
Apr 23 13:53 N 8 10 Clear CLR 65 35     33%     30.06 30.04      
Apr 23 12:53 NNW 9 10 Clear CLR 62 36     38%     30.07 30.06      
Apr 23 11:53 NNE 11 10 Clear CLR 60 38     44%     30.1 30.09      
Apr 23 10:53 N 9 10 Clear CLR 56 38     51%     30.11 30.1      
Apr 23 09:53 NNE 10 10 Clear CLR 54 37     53%     30.11 30.11      
Apr 23 08:53 N 11 10 Clear CLR 51 37     59%     30.11 30.11      
Apr 23 07:53 NNW 7 10 Clear CLR 46 40     79% 42   30.1 30.11      
Apr 23 06:53 NW 6 10 Clear CLR 43 39     86% 39   30.09 30.09      
Apr 23 05:53 NNW 5 10 Clear CLR 43 40     89% 40   30.07 30.07      
Apr 23 04:53 NW 6 10 Clear CLR 44 43     96% 41   30.06 30.06      
Apr 23 03:53 NW 6 10 Cloudy OVC085 46 44     93% 43   30.06 30.06      
Apr 23 02:53 WNW 7 10 Cloudy BKN070 OVC120 46 45     96% 42   30.06 30.06      
Apr 23 01:53 WNW 5 10 Cloudy OVC065 46 45     96% 44   30.06 30.06      
Apr 23 00:53 WNW 6 10 Cloudy BKN060 OVC075 46 45     96% 43   30.07 30.07     0
Apr 22 23:53 WNW 6 10 Cloudy OVC060 46 45     96% 43   30.08 30.09      
Apr 22 22:53 WNW 3 10 Cloudy OVC042 46 45     96% 45   30.09 30.09      
Apr 22 22:06 NW 5 10 Cloudy FEW027 BKN034 OVC043 46 45     96% 44   30.09        
Apr 22 21:53 NNW 3 10 Cloudy BKN028 OVC039 46 45     96% 45   30.09 30.09 0 0  
Apr 22 21:45 N 5 10 Light Rain SCT028 OVC039 46 45     96% 44   30.09   0    
Apr 22 21:26 NNW 5 9 Light Rain FEW008 BKN028 OVC037 46 45     96% 44   30.09   0    
Apr 22 20:53 N 7 10 Light Rain SCT008 BKN014 OVC019 46 45     96% 42   30.08 30.08 0    
Apr 22 19:53 N 6 6 Fog/Mist BKN007 BKN012 OVC016 46 45     96% 43   30.07 30.07 0    
Apr 22 18:53 N 10 5 Fog/Mist OVC008 46 45     96% 41   30.05 30.06 0   0
Apr 22 18:46 N 11 4 Light Rain and Fog/Mist BKN008 OVC013 46 45     96% 41   30.05   0    
Apr 22 18:38 N 10 7 Light Rain BKN010 OVC013 46 45     96% 41   30.05   0    
Apr 22 18:01 N 14 3 Light Rain and Fog/Mist BKN006 OVC015 46 45     96% 40   30.04   0    
Apr 22 17:53 N 13 1.75 Light Rain and Fog/Mist BKN006 BKN011 OVC017 46 45     96% 40   30.03 30.03 0    
Apr 22 17:47 N 14 2.5 Light Rain and Fog/Mist BKN006 OVC015 46 46     100% 40   30.04   0    
Apr 22 17:33 N 10 3 Light Rain and Fog/Mist SCT007 BKN014 OVC019 47 46     97% 42   30.03   0    
Apr 22 17:28 N 9 2 Light Rain and Fog/Mist SCT007 OVC016 47 46     97% 43   30.03   0    
Apr 22 16:53 N 10 9 Cloudy BKN007 OVC016 48 47     96% 43   30.02 30.02 0    
Apr 22 16:32 N 9 3 Light Rain and Fog/Mist BKN006 BKN011 OVC021 48 47     96% 44   30.02   0    
Apr 22 16:11 N 11 2.5 Light Rain and Fog/Mist BKN005 OVC015 48 46     93% 43   30.01   0    
Apr 22 16:01 N 8 3 Light Rain and Fog/Mist BKN005 BKN014 OVC025 48 47     96% 44   30.01   0    
Apr 22 15:53 NNW 9 2.5 Light Rain and Fog/Mist BKN005 BKN009 OVC021 48 47     96% 44   30.01 30.01 0 0  
Apr 22 14:53 N 8 2 Light Rain and Fog/Mist OVC005 47 46     97% 43   30.02 30.02 0    
Apr 22 14:09 N 7 2 Light Rain and Fog/Mist OVC005 46 46     100% 42   30.02   0    
Apr 22 13:53 NNW 6 6 Fog/Mist BKN007 OVC016 46 45     96% 43   30.01 30.01      
Apr 22 13:39 NNW 6 3 Fog/Mist OVC006 46 45     96% 43   30.01        
Apr 22 13:18 NNW 8 2 Fog/Mist OVC006 45 45     100% 41   30.01        
Apr 22 12:53 NNW 8 9 Cloudy OVC006 45 44     97% 41   30.01 30.01     0
Apr 22 12:16 N 7 10 Cloudy OVC005 46 44     93% 42   30.01        
Apr 22 11:53 N 7 9 Cloudy OVC004 46 45     96% 42   30.01 30.01      
Apr 22 11:04 N 8 9 Cloudy OVC004 45 45     100% 41   30        
Apr 22 10:53 N 8 10 Cloudy OVC005 46 45     96% 42   30 30 0    
Apr 22 10:28 NNE 9 10 Cloudy OVC005 47 46     97% 43   29.99   0    
Apr 22 09:53 N 9 5 Fog/Mist OVC003 46 46     100% 41   29.98 29.98 0 0  
Apr 22 09:31 NNE 9 4 Light Rain and Fog/Mist OVC005 47 47     100% 43   29.97   0    
Apr 22 09:19 N 11 2.5 Light Rain and Fog/Mist OVC005 47 46     97% 42   29.97   0    
Apr 22 09:08 N 10 1.75 Light Rain and Fog/Mist BKN005 OVC011 47 46     97% 42   29.97   0    
Apr 22 08:53 N 7 2.5 Light Rain and Fog/Mist BKN005 OVC009 49 48     97% 46   29.96 29.96 0    
Apr 22 08:51 N 7 2.5 Light Rain and Fog/Mist OVC007 48 48     100% 45   29.96   0    
Apr 22 08:40 N 9 3 Light Rain and Fog/Mist OVC005 49 48     97% 45   29.96   0    
Apr 22 08:30 NNE 8 2.5 Light Rain and Fog/Mist BKN005 OVC010 49 48     97% 45   29.96   0    
Apr 22 08:11 N 7 2.5 Light Rain and Fog/Mist BKN004 OVC009 48 48     100% 45   29.96   0    
Apr 22 07:53 7 1.25 Light Rain and Fog/Mist OVC004 48 48     100% 45   29.95 29.95 0    
Apr 22 07:36 N 8 1.5 Light Rain and Fog/Mist OVC003 48 48     100% 44   29.95   0    
Apr 22 07:00 N 7 2.5 Fog/Mist OVC004 48 47     96% 45   29.93        
Apr 22 06:53 N 7 3 Fog/Mist OVC004 48 48     100% 45   29.93 29.92 0   0
Apr 22 05:53 NNE 6 7 Cloudy BKN004 OVC021 48 48     100% 45   29.91 29.9 0    
Apr 22 05:51 N 6 7 Cloudy BKN004 OVC021 48 48     100% 46   29.91   0    
Apr 22 05:42 NNE 7 7 Cloudy SCT004 OVC021 48 48     100% 45   29.9   0    
Apr 22 04:53 N 6 3 Light Rain and Fog/Mist BKN003 OVC009 48 48     100% 45   29.9 29.89 0    
Apr 22 03:53 ESE 9 9 Light Rain OVC003 48 48     100% 44   29.88 29.87 0 0  
Apr 22 03:50 SE 10 9 Light Rain OVC003 48 48     100% 44   29.88   0    
Apr 22 03:32 ESE 7 5 Fog/Mist OVC002 48 48     100% 45   29.87   0    
Apr 22 03:00   2.5 Light Rain and Fog/Mist OVC002 48 48     100%     29.84   0    
Apr 22 02:53 SE 13 2 Light Rain and Fog/Mist OVC003 48 48     100% 43   29.86 29.85 0    
Apr 22 02:34 ESE 10 4 Fog/Mist OVC004 48 48     100% 43   29.86        
Apr 22 01:53 ESE 10 10 Cloudy OVC006 49 48     97% 45   29.87 29.86      
Apr 22 00:53 E 10 10 Cloudy BKN008 OVC013 49 49     100% 45   29.9 29.89 0   1
Apr 22 00:06 E 6 10 Cloudy OVC006 50 50     100% 48   29.9   0    
Apr 21 23:53 ENE 6 10 Light Rain OVC004 50 50     100% 48   29.92 29.91 0    
Apr 21 23:34 SE 13 9 Light Rain BKN003 OVC049 50 50     100% 45   29.91   0    
Apr 21 22:59 ENE 7 3 Thunderstorms and Heavy Rain and Fog/Mist SCT005 BKN035 OVC044 50 50     100% 47   29.92   0    
Apr 21 22:53 6 5 Rain and Fog/Mist BKN005 BKN016 OVC025 50 50     100% 48   29.93   0    
Apr 21 22:39 N 9 3 Heavy Rain and Fog/Mist OVC005 51 51     100%     29.91   0    
Apr 21 22:34 N 10 2.5 Thunderstorms and Heavy Rain and Fog/Mist OVC005 51 51     100%     29.9   0    
Apr 21 22:11 E 9 7 Thunderstorms and Rain BKN006 BKN010 OVC015 52 52     100%     29.85   0    
Apr 21 22:03 ESE 7 10 Thunderstorms and Rain SCT008 BKN016 OVC065 52 52     100%     29.87   0    
Apr 21 21:58 ESE 9 10 Light Rain FEW006 BKN014 OVC065 52 52     100%     29.87   0    
Apr 21 21:53 ESE 7 10 Light Rain FEW008 BKN017 OVC065 52 52     100%     29.89 29.88 0 1  
Apr 21 21:44 ESE 11 6 Light Rain and Fog/Mist FEW006 SCT017 OVC065 52 52     100%     29.87   0    
Apr 21 21:38 ESE 13 3 Heavy Rain and Fog/Mist SCT006 BKN020 OVC065 52 52     100%     29.86   0    
Apr 21 21:31 ENE 7 2.5 Heavy Rain and Fog/Mist BKN005 OVC011 53 53     100%     29.88   0    
Apr 21 20:53 E 14 5 Heavy Rain and Fog/Mist BKN005 OVC035 53 53     100%     29.85 29.84 0    
Apr 21 20:49 E 7 7 Light Rain BKN005 OVC033 54 54     100%     29.86   0    
Apr 21 20:46 E 6 6 Thunderstorms and Rain and Fog/Mist SCT005 OVC033 53 53     100%     29.86   0    
Apr 21 20:35 ESE 13 2 Thunderstorms and Heavy Rain and Fog/Mist FEW005 BKN037 OVC055 53 53     100%     29.82   0    
Apr 21 20:23   1.75 Thunderstorms and Heavy Rain and Fog/Mist SCT005 OVC033 53 53     100%     29.86   0    
Apr 21 20:18   2.5 Thunderstorms and Heavy Rain and Fog/Mist BKN005 BKN037 OVC060 53 53     100%     29.89   0    
Apr 21 19:53 ESE 10 5 Thunderstorms and Rain and Fog/Mist BKN004 OVC040 53 53     100%     29.86 29.85 0    
Apr 21 19:38 SSE 16 4 Thunderstorms and Heavy Rain and Fog/Mist BKN004 BKN041 OVC060 53 53     100%     29.86   0    
Apr 21 19:22 ESE 11 4 Thunderstorms and Rain and Fog/Mist SCT004 BKN041 OVC090 53 53     100%     29.85   0    
Apr 21 19:09 ESE 9 9 Light Rain FEW004 SCT075 OVC095 53 53     100%     29.88   0    
Apr 21 19:01 E 10 10 Light Rain FEW005 FEW040 OVC095 53 53     100%     29.88   0    
Apr 21 18:53 E 10 8 Thunderstorms and Rain FEW007 SCT041 OVC100 53 53     100%     29.88 29.87 0   1
Apr 21 18:51 E 10 6 Thunderstorms and Rain and Fog/Mist SCT007 BKN041 OVC100 54 54     100%     29.88   0    
Apr 21 18:40 ENE 8 3 Thunderstorms and Heavy Rain and Fog/Mist SCT006 BKN012 OVC040 53 53     100%     29.91   0    
Apr 21 18:29 NNW 6 5 Rain and Fog/Mist BKN006 OVC011 54 54     100%     29.94   0    
Apr 21 17:53 NNE 8 10 Light Rain OVC008 55 54     96%     29.9 29.89 0    
Apr 21 16:53 SE 15 10 Cloudy OVC006 54 53     97%     29.86 29.84 0    
Apr 21 16:07 ENE 8 8 Light Rain BKN006 OVC090 52 52     100%     29.87   0    
Apr 21 15:53 3 8 Light Rain FEW005 SCT075 OVC095 53 53     100%     29.9 29.88 0 1  
Apr 21 15:14 NNE 7 5 Light Rain and Fog/Mist FEW004 BKN060 OVC070 52 52     100%     29.97   0    
Apr 21 15:06 NNE 5 2.5 Heavy Rain and Fog/Mist FEW006 BKN037 OVC070 52 52     100%     30   0    
Apr 21 14:53 N 8 2 Heavy Rain and Fog/Mist SCT004 BKN027 OVC055 52 52     100%     30.03 30.01 0    
Apr 21 14:48 NNW 9 2 Heavy Rain and Fog/Mist BKN004 BKN021 OVC055 52 52     100%     30.03   0    
Apr 21 14:41 NW 8 1.75 Heavy Rain and Fog/Mist SCT004 BKN009 OVC049 52 52     100%     30.03   0    
Apr 21 14:35 NNW 6 1.75 Heavy Rain and Fog/Mist SCT004 BKN019 OVC049 52 52     100%     30.03   0    
Apr 21 14:26 NNW 7 1.25 Thunderstorms and Heavy Rain and Fog/Mist FEW004 BKN032 OVC048 52 52     100%     30.04   0    
Apr 21 14:15 WNW 3 1.75 Heavy Rain and Fog/Mist FEW006 SCT036 OVC048 52 52     100%     30.04   0    
Apr 21 14:03 NW 7 2 Thunderstorms and Heavy Rain and Fog/Mist FEW006 OVC034 52 52     100%     30.01   0    
Apr 21 13:53 NW 8 1.75 Thunderstorms and Heavy Rain and Fog/Mist FEW004 BKN022 OVC029 52 52     100%     30.01   0    
Apr 21 13:50 NW 13 1.25 Thunderstorms and Heavy Rain and Fog/Mist SCT004 OVC022 52 52     100%     30.02   0    
Apr 21 13:43 NNW 8 1 Thunderstorms and Heavy Rain and Fog/Mist SCT004 OVC013 52 52     100%     29.98   0    
Apr 21 13:40 NW 8 0.75 Thunderstorms and Heavy Rain and Fog/Mist BKN004 OVC013 52 52     100%     29.99   0    
Apr 21 13:31 N 3 1.5 Thunderstorms and Heavy Rain and Fog/Mist BKN004 OVC015 52 52     100%     29.97   0    
Apr 21 13:28 NW 8 3 Thunderstorms and Heavy Rain and Fog/Mist OVC004 52 52     100%     29.98   0    
Apr 21 13:13 NE 5 9 Thunderstorms and Rain OVC005 52 52     100%     29.93   0    
Apr 21 12:53 ENE 7 10 Cloudy OVC005 52 52     100%     29.94 29.92 0   1
Apr 21 12:47 NE 5 10 Cloudy OVC005 52 52     100%     29.94   0    
Apr 21 12:36 ENE 6 8 Light Rain OVC004 52 52     100%     29.95   0    
Apr 21 12:28 E 3 3 Heavy Rain and Fog/Mist OVC005 52 52     100%     29.94   0    
Apr 21 12:15 E 10 6 Light Rain and Fog/Mist BKN005 OVC050 52 52     100%     29.92   0    
Apr 21 12:05 ESE 8 2 Heavy Rain and Fog/Mist BKN005 BKN034 OVC047 52 52     100%     29.94   0    
Apr 21 11:53 ESE 9 6 Rain and Fog/Mist OVC005 52 52     100%     29.95 29.93 0    
Apr 21 11:31 SE 13 10 Light Rain OVC005 52 52     100%     29.95   0    
Apr 21 10:53 SE 10 10 Cloudy OVC004 51 51     100%     29.98 29.96 0    
Apr 21 09:53 SE 13 10 Light Rain OVC005 50 50     100% 45   29.99 29.98 0 1  
Apr 21 09:26 ESE 13 3 Light Rain and Fog/Mist BKN004 OVC046 50 50     100% 45   30   0    
Apr 21 09:19   2 Heavy Rain and Fog/Mist BKN007 OVC046 50 50     100%     29.95   0    
Apr 21 09:11   2.5 Heavy Rain and Fog/Mist BKN008 OVC042 50 50     100%     30.03   0    
Apr 21 08:53 ESE 7 3 Thunderstorms and Heavy Rain and Fog/Mist OVC008 51 50     96%     30.08 30.07 0    
Apr 21 08:31 ESE 5 4 Thunderstorms and Rain and Fog/Mist BKN008 OVC050 51 51     100%     30.1   0    
Apr 21 07:53 N 7 3 Thunderstorms and Heavy Rain and Fog/Mist SCT007 OVC048 51 51     100%     30.08 30.06 0    
Apr 21 07:51 NE 7 3 Thunderstorms and Heavy Rain and Fog/Mist SCT007 BKN010 OVC045 52 52     100%     30.08   0    
Apr 21 07:28 N 5 2.5 Thunderstorms and Heavy Rain and Fog/Mist BKN006 OVC028 51 51     100%     30.09   0    
Apr 21 07:21 NNW 10 7 Rain FEW006 BKN009 OVC028 51 51     100%     30.09   0    
Apr 21 07:14 NNW 7 8 Light Rain SCT009 OVC028 51 51     100%     30.08   0    
Apr 21 06:53 NNE 8 10 Light Rain OVC027 51 51     100%     30.06 30.04 0   0
Apr 21 06:15 NNE 10 10 Light Rain SCT007 SCT019 OVC028 52 51     97%     30.05   0    
Apr 21 05:53 NNE 10 5 Light Rain and Fog/Mist BKN007 OVC011 52 51     97%     30.04 30.02 0    
Apr 21 05:22 N 10 4 Light Rain and Fog/Mist BKN007 BKN011 OVC025 54 53     97%     30.05   0    
Apr 21 05:14 N 13 5 Light Rain and Fog/Mist SCT007 BKN013 OVC025 54 53     97%     30.05   0    
Apr 21 05:07 N 13 7 Light Rain FEW007 SCT011 OVC022 55 53     93%     30.05   0    
Apr 21 04:53 N 9 10 Cloudy BKN020 OVC024 55 53     93%     30.04 30.02 0    
Apr 21 04:25 N 7 10 Cloudy OVC016 56 54     93%     30.02   0    
Apr 21 03:53 NNE 6 10 Cloudy SCT006 OVC012 57 56     96%     30.02 29.99 0 0  
Apr 21 02:53 NE 8 4 Fog/Mist BKN006 OVC011 60 59     96%     30 29.97      
Apr 21 02:12 NNE 5 9 Cloudy BKN007 BKN010 OVC015 62 62     100%     30        
Apr 21 02:04 NE 3 9 Cloudy SCT009 OVC014 62 62     100%     30.01        
Apr 21 01:53 NE 3 7 Cloudy OVC014 63 62     97%     30.02 29.98      
Apr 21 01:36 Calm 9 Cloudy BKN014 OVC023 63 62     97%     30.02        
Apr 21 00:53 Calm 9 Cloudy OVC024 63 62     97%     30.03 30 0   0
Apr 21 00:17 Calm 9 Light Rain OVC023 63 62     97%     30.04   0    
Apr 21 00:09 Calm 2 Rain and Fog/Mist OVC022 62 62     100%     30.04   0    
Apr 20 23:53 Calm 10 Light Rain OVC021 63 62     97%     30.05 30.01 0    
Apr 20 22:53 Calm 10 Cloudy BKN017 OVC028 63 62     97%     30.05 30.02      
Apr 20 22:45 W 3 10 Cloudy SCT015 BKN029 OVC036 63 62     97%     30.05        
Apr 20 22:20 Calm 10 Cloudy FEW006 BKN033 OVC040 63 62     97%     30.05        
Apr 20 21:53 Calm 10 Cloudy OVC006 63 62     97%     30.05 30.01      
Apr 20 21:15 NW 3 10 Cloudy BKN006 BKN048 OVC070 63 61     93%     30.04        
Apr 20 21:02 Calm 10 Cloudy FEW008 BKN048 OVC075 63 61     93%     30.04        
Apr 20 20:53 NW 6 10 Cloudy FEW011 BKN036 OVC075 63 61     93%     30.03 30      
Apr 20 20:49 NW 5 10 Cloudy FEW008 BKN034 OVC042 64 61     88%     30.03        
Apr 20 20:42 NW 3 10 Cloudy SCT014 BKN036 OVC047 64 61     90%     30.03        
Apr 20 19:53 NNW 5 10 Cloudy FEW010 BKN014 OVC032 64 61     90%     30.03 30      
Apr 20 19:51 NNW 5 10 Cloudy FEW010 BKN014 OVC032 64 61     88%     30.02        
Apr 20 19:44 NNW 6 10 Cloudy FEW008 SCT012 OVC032 64 61     90%     30.03        
Apr 20 19:24 NW 3 10 Cloudy BKN010 BKN036 OVC055 65 63     93%     30.02        
Apr 20 19:12 NW 5 10 Cloudy SCT010 BKN029 OVC055 66 63     90%     30.02        
Apr 20 18:53 NNW 7 10 Cloudy FEW010 SCT030 OVC038 66 63     90%     30.02 29.99     0
Apr 20 18:31 NW 7 10 Cloudy FEW011 BKN036 OVC043 66 62     87%     30.02        
Apr 20 18:23 WNW 5 10 Cloudy FEW010 BKN029 OVC047 67 62     84%     30.02        
Apr 20 17:53 NW 8 10 Mostly Cloudy FEW008 BKN045 67 63     87%     30.02 29.99      
Apr 20 17:38 NW 9 10 Mostly Cloudy FEW009 BKN045 68 63     84%     30.02        
Apr 20 17:14 WNW 10 10 Cloudy SCT009 BKN023 OVC050 67 64     90%     30.02        
Apr 20 16:53 NW 13 10 Cloudy FEW013 BKN023 OVC055 68 63     84%     30.01 29.98      
Apr 20 15:53 WNW 9 10 Cloudy SCT044 OVC075 71 64     79%   72 30.01 29.97 0 0  
Apr 19 15:53 S 16 10 Partly Cloudy FEW060 SCT070 79 58     49%   79 30.03 30 0 0  
Apr 19 14:53 S 13 10 Light Rain BKN060 78 58     50%   78 30.06 30.03 0    
Apr 19 13:53 S 15 10 Light Rain SCT050 79 58     49%   79 30.08 30.04 0    
Apr 19 12:53 SSW 14 10 Clear CLR 80 57     45%   80 30.09 30.05      
Apr 19 11:53 S 14 10 Clear CLR 77 57     50%   77 30.11 30.07      
Apr 19 10:53 S 11 10 Clear CLR 75 60     60%   75 30.11 30.07      
Apr 19 09:53 SSE 13 10 Clear CLR 71 62     73%   71 30.11 30.07      
Apr 19 08:53 6 10 Clear CLR 67 64     90%     30.11 30.07      
Apr 19 07:53 SSE 7 6 Fog/Mist CLR 63 63     100%     30.1 30.07      
Apr 19 06:53 SE 3 3 Fog/Mist CLR 61 60     97%     30.09 30.06      
Apr 19 05:53 SSE 3 5 Fog/Mist CLR 61 61     100%     30.08 30.04      
Apr 19 04:53 SSE 7 9 Clear CLR 60 60     100%     30.07 30.03      
Apr 19 03:53 S 3 9 Clear CLR 61 60     97%     30.06 30.02      
Apr 19 02:53 SSE 3 10 Clear CLR 61 60     97%     30.06 30.02      
Apr 19 01:53 SE 5 10 Clear CLR 61 59     93%     30.06 30.03      
Apr 19 00:53 SSE 5 10 Clear CLR 63 59     87%     30.08 30.04      
Apr 18 22:53 S 8 10 Clear CLR 67 58     73%     30.08 30.05      
Apr 18 21:53 S 7 10 Clear CLR 68 57     68%     30.07 30.04      
Apr 18 20:53 SE 5 10 Clear CLR 68 60     76%     30.05 30.02      
Apr 18 19:53 E 5 10 Clear CLR 72 61     68%   72 30.03 30.01      
Apr 18 18:53 E 6 10 Clear CLR 76 60     58%   76 30.03 29.99      
Apr 18 17:53 SE 7 10 Clear CLR 78 61     56%   78 30.03 29.99      
Apr 18 16:53 ESE 7 10 Clear CLR 78 60     54%   78 30.03 30      
Apr 18 15:53 5 10 Mostly Clear FEW045 79 60     52%   79 30.04 30.01      
Apr 18 14:53 3 10 Mostly Cloudy SCT047 BKN060 76 60     58%   76 30.06 30.03      
Apr 18 13:53 E 9 10 Partly Cloudy FEW030 FEW036 SCT047 76 61     60%   76 30.07 30.03      
Apr 18 12:53 E 7 10 Mostly Clear FEW023 72 60     66%   72 30.08 30.05      
Apr 18 11:53   10 Partly Cloudy SCT017 70 61     73%     30.1 30.07      
Apr 18 11:32 SSE 9 10 Mostly Cloudy BKN016 68 60     76%     30.1        
Apr 18 10:53 SSE 9 10 Cloudy OVC013 66 60     81%     30.09 30.07      
Apr 18 10:30 SSW 6 10 Cloudy OVC010 63 60     90%     30.1        
Apr 18 10:01 3 10 Cloudy OVC006 61 60     97%     30.1        
Apr 18 09:53 SSE 5 10 Cloudy OVC004 60 60     100%     30.1 30.07      
Apr 18 09:31 SSE 5 7 Cloudy OVC003 60 60     100%     30.1        
Apr 18 09:13 SE 7 4 Fog/Mist OVC002 59 59     100%     30.1        
Apr 18 09:02 SE 8 2 Fog/Mist OVC002 59 59     100%     30.1        
Apr 18 08:57 SE 7 0.75 Fog/Mist VV002 59 59     100%     30.1        
Apr 18 08:53 SSE 7 0.25 Fog VV002 59 59     100%     30.1 30.08      
Apr 18 07:53 SE 8 0.25 Fog VV002 58 58     100%     30.1 30.07      
Apr 18 06:53 ESE 5 0.25 Fog VV002 58 58     100%     30.1 30.07     0
Apr 18 06:34 ESE 6 0.25 Fog VV002 58 58     100%     30.1        
Apr 18 06:21 ESE 5 0.5 Fog VV002 58 58     100%     30.1        
Apr 18 06:10 Calm 1 Fog/Mist VV002 58 58     100%     30.1        
Apr 18 06:02 ESE 3 0.75 Fog/Mist VV002 58 58     100%     30.1        
Apr 18 05:53 Calm 1 Fog/Mist VV002 58 58     100%     30.1 30.07      
Apr 18 05:12 E 3 0.5 Fog VV002 58 58     100%     30.09        
Apr 18 04:53 E 3 0.25 Fog VV002 58 58     100%     30.09 30.06      
Apr 18 04:30 E 3 0.25 Fog VV002 59 59     100%     30.08        
Apr 18 04:18 ESE 8 0.5 Fog VV002 59 59     100%     30.07        
Apr 18 03:53 ESE 6 1.75 Fog/Mist OVC002 59 59     100%     30.07 30.05   0  
Apr 18 03:35 E 7 2.5 Fog/Mist OVC002 59 59     100%     30.07        
Apr 18 03:00 E 5 4 Fog/Mist OVC002 59 59     100%     30.07        
Apr 18 02:53 E 5 3 Fog/Mist OVC003 59 59     100%     30.08 30.05      
Apr 18 01:53 E 7 4 Fog/Mist OVC003 60 60     100%     30.09 30.06 0    
Apr 18 01:04 ESE 7 4 Fog/Mist OVC004 60 60     100%     30.09   0    
Apr 18 00:53 ESE 7 4 Light Rain and Fog/Mist OVC005 60 60     100%     30.09 30.07 0   0
Apr 17 23:53 E 7 10 Clear   61 60     97%     30.1 30.08      
Apr 17 22:53 E 7 10 Cloudy OVC007 61 60     97%     30.1 30.08      
Apr 17 22:03 ENE 5 10 Cloudy BKN009 OVC029 62 60     93%     30.1        
Apr 17 21:53 E 7 10 Cloudy BKN010 BKN017 OVC029 62 60     93%     30.1 30.07      
Apr 17 21:48 E 7 10 Cloudy BKN010 BKN017 OVC029 63 61     94%     30.1        
Apr 17 20:53 E 9 10 Cloudy SCT010 OVC028 62 60     93%     30.08 30.05      
Apr 17 20:35 E 6 10 Mostly Cloudy FEW010 BKN029 62 60     93%     30.06        
Apr 17 19:53 ENE 7 10 Clear   63 60     90%     30.05 30.03      
Apr 17 18:53 ENE 9 10 Mostly Cloudy FEW013 BKN047 65 61     87%     30.05 30.03     0
Apr 17 17:53 NE 7 10 Cloudy FEW014 FEW021 OVC041 67 61     81%     30.04 30.01      
Apr 17 16:53 N 7 10 Mostly Clear FEW014 68 61     78%     30.03 30      
Apr 17 15:53 N 8 10 Mostly Clear FEW022 69 61     75%     30.04 30.01   0  
Apr 17 15:49 NNW 8 10 Mostly Clear FEW022 70 61     73%     30.04        
Apr 17 15:28 NNE 8 10 Cloudy BKN015 OVC022 68 62     81%     30.05        
Apr 17 15:06 NE 7 10 Mostly Cloudy BKN014 BKN055 68 62     81%     30.06        
Apr 17 14:53 NE 6 10 Mostly Cloudy SCT012 BKN055 68 62     81%     30.07 30.04      
Apr 17 14:40 Calm 10 Cloudy FEW008 FEW020 OVC055 68 61     78%     30.08        
Apr 17 14:15 Calm 10 Cloudy SCT007 OVC018 65 62     90%     30.09        
Apr 17 13:53 SSE 3 10 Cloudy BKN005 OVC015 63 62     97%     30.1 30.07 0    
Apr 17 13:10 ESE 5 4 Fog/Mist OVC007 62 62     100%     30.11   0    
Apr 17 13:01 ESE 3 2.5 Fog/Mist OVC006 62 62     100%     30.11   0    
Apr 17 12:53 ESE 5 3 Light Rain and Fog/Mist OVC006 62 62     100%     30.11 30.09 0   0
Apr 17 12:38 ESE 6 4 Light Rain and Fog/Mist OVC005 62 61     96%     30.11   0    
Apr 17 12:17 E 5 2.5 Light Rain and Fog/Mist OVC007 62 61     96%     30.12   0    
Apr 17 11:53 E 3 10 Cloudy OVC009 63 60     90%     30.12 30.1      
Apr 17 11:11 E 8 10 Cloudy BKN008 OVC012 62 61     96%     30.12        
Apr 17 11:03 ENE 6 10 Cloudy BKN010 OVC018 62 60     93%     30.12        
Apr 17 10:53 ENE 8 10 Cloudy BKN007 BKN011 OVC018 63 61     93%     30.12 30.09 0    
Apr 17 09:53 NE 7 10 Light Rain OVC005 62 61     96%     30.1 30.07 0 0  
Apr 17 08:53 NNE 6 10 Cloudy BKN006 OVC022 61 60     97%     30.11 30.09      
Apr 17 08:51 N 5 10 Cloudy BKN006 BKN022 OVC120 61 61     100%     30.11        
Apr 17 07:53 N 8 10 Mostly Cloudy BKN004 60 60     100%     30.08 30.06      
Apr 17 07:50 N 6 10 Mostly Cloudy BKN004 BKN018 61 61     100%     30.08        
Apr 17 07:07 Calm 10 Cloudy SCT009 OVC017 61 60     97%     30.05        
Apr 17 06:53 E 5 10 Cloudy BKN007 OVC019 60 60     100%     30.05 30.02     0
Apr 17 06:46 Calm 4 Fog/Mist OVC007 60 60     100%     30.05        
Apr 17 06:37 NE 6 1.75 Fog/Mist OVC005 60 60     100%     30.05        
Apr 17 06:25 NNE 5 8 Cloudy SCT002 OVC008 60 60     100%     30.06        
Apr 17 06:16 N 5 8 Cloudy BKN003 OVC008 60 60     100%     30.07        
Apr 17 05:53 W 6 10 Cloudy BKN009 OVC014 60 60     100%     30.08 30.05 0    
Apr 17 05:24 N 5 9 Cloudy BKN009 OVC120 60 60     100%     30.08        
Apr 17 05:11 N 5 10 Mostly Cloudy FEW008 BKN120 60 60     100%     30.09        
Apr 17 04:53 Calm 10 Mostly Cloudy BKN120 60 60     100%     30.07 30.04 0    
Apr 17 03:53 E 7 4 Clear   61 60     97%     30.04 30.01 0 0  
Apr 17 03:48 Calm 2.5 Clear   61 61     100%     30.06   0    
Apr 17 03:30 W 5 4 Rain and Fog/Mist FEW070 OVC090 61 61     100%     30.08   0    
Apr 17 02:53 W 7 10 Thunderstorms FEW009 BKN040 OVC048 63 62     97%     30.06 30.03 0    
Apr 17 02:50 W 5 10 Cloudy FEW009 BKN040 OVC046 63 63     100%     30.06   0    
Apr 17 02:39 Calm 8 Light Rain FEW009 BKN024 OVC050 64 63     96%     30.05   0    
Apr 17 02:27 WSW 6 10 Cloudy FEW006 BKN050 OVC070 62 62     100%     30.06   0    
Apr 17 01:53 ESE 8 10 Light Rain BKN065 OVC100 62 62     100%     30.05 30.02 0    
Apr 17 00:53 S 5 10 Clear CLR 62 61     96%     30.07 30.05      
Apr 16 23:53 SSE 7 10 Clear CLR 62 61     96%     30.07 30.05      
Apr 16 22:53 SE 6 10 Mostly Cloudy BKN070 63 62     97%     30.09 30.07      
Apr 16 21:53 SE 6 10 Cloudy OVC085 64 62     93%     30.1 30.08      
Apr 16 20:53 SSE 6 10 Mostly Cloudy BKN080 63 61     93%     30.09 30.06      
Apr 16 19:53 SE 5 10 Cloudy OVC075 66 62     87%     30.09 30.06      
Apr 16 18:53 Calm 10 Cloudy OVC050 67 62     84%     30.09 30.07      
Apr 16 17:53 E 5 10 Cloudy SCT040 OVC050 68 62     81%     30.08 30.06      
Apr 16 17:34 E 7 10 Cloudy FEW021 BKN037 OVC047 68 62     81%     30.07        
Apr 16 17:00 SE 8 10 Cloudy BKN020 BKN028 OVC035 68 62     81%     30.07        
Apr 16 16:53 SE 7 10 Mostly Cloudy SCT020 BKN035 69 62     78%     30.07 30.04      
Apr 16 16:20 Calm 10 Partly Cloudy FEW026 SCT033 70 62     76%     30.06        
Apr 16 15:53 Calm 10 Mostly Cloudy SCT018 BKN024 70 60     71%     30.06 30.03      
Apr 16 15:40 NW 6 10 Mostly Cloudy BKN018 70 62     76%     30.06        
Apr 16 14:53 NNE 7 10 Mostly Clear FEW016 68 61     78%     30.06 30.03      
Apr 16 13:53 N 8 10 Clear CLR 66 62     87%     30.07 30.04      
Apr 16 12:53 SE 14 10 Clear CLR 62 60     93%     30.03   0   0
Apr 16 12:04   4 Rain and Fog/Mist FEW070 OVC095 60 60     100%     30.09   0    
Apr 16 11:53   4 Thunderstorms and Rain and Fog/Mist FEW070 OVC090 60 59     96%     30.1 30.08 0    
Apr 16 11:49   4 Thunderstorms and Heavy Rain and Fog/Mist SCT070 OVC090 59 59     100%     30.11   0    
Apr 16 11:37 S 10 4 Rain and Fog/Mist FEW070 OVC095 59 59     100%     30.14   0    
Apr 16 11:30 S 7 2.5 Heavy Rain and Fog/Mist FEW008 FEW075 OVC090 60 60     100%     30.15   0    
Apr 09 00:53 S 7 10 Clear CLR 65 49     56%     29.83 29.8     0
Apr 08 23:53 S 8 10 Clear CLR 65 48     54%     29.84 29.8      
Apr 08 22:53 S 11 10 Clear CLR 66 47     50%     29.85 29.82      
Apr 08 21:53 S 11 10 Clear CLR 66 46     48%     29.86 29.83   0  
Apr 08 20:53 S 11 10 Clear CLR 68 45     43%     29.84 29.81      
Apr 08 19:53 S 11 10 Clear CLR 70 47     44%     29.83 29.81 0    
Apr 08 18:53 S 20 10 Clear and Windy CLR 73 47     39%   72 29.83 29.81     0
Apr 08 17:53 S 18 10 Clear CLR 76 45     33%   75 29.84 29.81 0    
Apr 08 16:53 SSW 13 10 Mostly Clear FEW043 77 45     32%   76 29.85 29.83 0    
Apr 08 15:53 S 16 10 Clear CLR 76 46     35%   75 29.86 29.84      
Apr 08 14:53 S 21 10 Clear and Windy CLR 76 47     36%   75 29.9 29.88      
Apr 08 13:53 S 20 10 Clear and Windy CLR 75 46     36%   74 29.93 29.9      
Apr 08 12:53 S 17 10 Clear CLR 75 47     37%   74 29.95 29.93      
Apr 08 11:53 S 18 10 Clear CLR 72 46     40%   71 29.98 29.96      
Apr 08 10:53 S 16 10 Clear CLR 69 44     40%     30 29.97      
Apr 08 09:53 SSE 14 10 Clear CLR 63 44     50%     30.01 29.99      
Apr 08 08:53 SSE 14 10 Clear CLR 59 42     53%     30.01 30      
Apr 08 07:53 SE 10 10 Clear CLR 52 39     61%     30.02 30.01      
Apr 08 06:53 SSE 9 10 Clear CLR 46 38     73% 41   30.02 30.01      
Apr 08 05:53 SE 3 10 Clear CLR 46 36     68% 45   30.02 30.01      
Apr 08 04:53 ESE 5 10 Clear CLR 45 36     71% 43   30.02 30      
Apr 08 03:53 SE 6 10 Clear CLR 45 35     68% 42   30.02 30      
Apr 08 02:53 SSE 6 10 Clear CLR 48 35     61% 45   30.03 30.01      
Apr 08 01:53 SE 3 10 Clear CLR 50 34     54% 49   30.05 30.03      
Apr 08 00:53 SE 6 10 Clear CLR 49 34     56% 46   30.06 30.04      
Apr 07 23:53 SE 3 10 Clear CLR 50 34     54% 49   30.07 30.06      
Apr 07 22:53 Calm 10 Clear CLR 52 31     44%     30.07 30.06      
Apr 07 21:53 SSE 6 10 Clear CLR 55 28     35%     30.08 30.07      
Apr 07 20:53 S 5 10 Clear CLR 55 31     40%     30.09 30.08      
Apr 07 19:53 SSE 5 10 Clear CLR 58 28     32%     30.09 30.08      
Apr 07 18:53 Calm 10 Clear CLR 64 22     20%     30.09 30.09      
Apr 07 17:53 E 3 10 Clear CLR 65 22     19%     30.1 30.09      
Apr 07 16:53 N 7 10 Clear CLR 67 21     17%     30.11 30.1      
Apr 07 15:53 WNW 5 10 Clear CLR 65        %     30.14 30.13      
Apr 07 14:53 3 10 Clear CLR 64 25     23%     30.18 30.18      
Apr 07 13:53 7 10 Clear CLR 62 26     25%     30.21 30.2      
Apr 07 12:53 WNW 8 10 Clear CLR 60 25     26%     30.24 30.24      
Apr 07 11:53 WSW 6 10 Clear CLR 57 28     33%     30.27 30.26      
Apr 07 10:53 3 10 Clear CLR 55 29     37%     30.28 30.27      
Apr 07 09:53 NNW 5 10 Clear CLR 53 28     38%     30.27 30.26      
Apr 07 08:53 WNW 3 10 Clear CLR 50 32     50% 49   30.26 30.26      
Apr 07 07:53 WNW 3 10 Clear CLR 44 34     67% 43   30.24 30.24      
Apr 07 06:53 WNW 3 10 Clear CLR 38 30     73% 36   30.23 30.23      
Apr 07 05:53 WNW 3 10 Clear CLR 42 30     62% 40   30.23 30.22      
Apr 07 04:53 WNW 5 10 Clear CLR 42 31     64% 39   30.22 30.21      
Apr 07 03:53 WNW 5 10 Clear CLR 43 31     62% 40   30.22 30.21      
Apr 07 02:53 W 5 10 Clear CLR 44 31     60% 41   30.23 30.22      
Apr 07 01:53 W 6 10 Clear CLR 43 32     65% 39   30.23 30.22      
Apr 07 00:53 WNW 5 10 Clear CLR 45 31     58% 43   30.22 30.22      
Apr 06 23:53 WNW 6 10 Clear CLR 46 31     55% 43   30.21 30.21      
Apr 06 22:53 WNW 5 10 Clear CLR 47 30     52% 45   30.2 30.2      
Apr 06 21:53 WNW 5 10 Clear CLR 49 29     46% 47   30.19 30.19      
Apr 06 20:53 NW 6 10 Clear CLR 50 28     42% 48   30.17 30.17      
Apr 06 19:53 NW 9 10 Clear CLR 53 28     38%     30.15 30.15      
Apr 06 18:53 NW 11 10 Clear CLR 57 28     33%     30.14 30.14      
Apr 06 17:53 NNW 14 10 Mostly Cloudy BKN070 60 28     29%     30.14 30.14      
Apr 06 16:53   10 Mostly Cloudy BKN070 60 27     28%     30.13 30.13      
Apr 06 15:53 NNW 13 10 Mostly Cloudy SCT065 BKN080 61 32     33%     30.14 30.13      
Apr 06 14:53 WNW 15 10 Mostly Clear FEW060 59 34     39%     30.14 30.14      
Apr 06 13:53 NW 11 10 Partly Cloudy SCT060 SCT075 59 34     39%     30.15 30.15      
Apr 06 12:53 NW 16 10 Partly Cloudy SCT055 58 35     42%     30.15 30.15      
Apr 06 11:53 WNW 13 10 Mostly Cloudy FEW041 SCT050 BKN060 57 38     49%     30.15 30.14      
Apr 06 10:53 NW 13 10 Mostly Clear FEW041 54 38     55%     30.16 30.15      
Apr 06 09:53 NW 13 10 Clear CLR 51 36     56%     30.14 30.14      
Apr 06 08:53 WNW 10 10 Clear CLR 47 36     65% 42   30.12 30.13      
Apr 06 07:53 NW 8 10 Clear CLR 43 35     73% 38   30.1 30.11      
Apr 06 06:53 NW 8 10 Clear CLR 41 34     76% 36   30.07 30.07      
Apr 06 05:53 NW 6 10 Clear CLR 40 33     76% 36   30.04 30.04      
Apr 06 04:53 W 6 10 Clear CLR 40 33     76% 36   30.02 30.03      
Apr 06 03:53 W 7 10 Clear CLR 40 34     79% 35   30.01 30.02      
Apr 06 02:53 W 7 10 Clear CLR 42 34     73% 38   30.02 30.02      
Apr 06 01:53 WNW 9 10 Clear CLR 42 36     79% 37   30.03 30.03      
Apr 06 01:02 NW 11 10 Partly Cloudy SCT029 44 38     79% 38   30.03        
Apr 06 00:53 NW 11 10 Mostly Cloudy BKN029 44 38     79% 38   30.02 30.02     0
Apr 06 00:05 NW 11 10 Mostly Cloudy BKN029 45 38     76% 39   30        
Apr 05 23:53 NW 8 10 Partly Cloudy SCT029 SCT035 45 38     76% 41   30 30      
Apr 05 22:53 NW 13 10 Mostly Clear FEW050 46 38     73% 40   29.96 29.96      
Apr 05 21:53 WNW 11 10 Mostly Cloudy BKN065 46 40     79% 41   29.95 29.94   0  
Apr 05 20:53 WNW 10 10 Mostly Cloudy BKN085 46 41     82% 41   29.92 29.92 0    
Apr 05 19:53 WNW 14 10 Cloudy BKN045 OVC055 47 41     80% 41   29.89 29.89 0    
Apr 05 18:53 NW 9 10 Mostly Cloudy BKN033 BKN042 49 40     71% 45   29.87 29.86 0   0
Apr 05 17:53 NW 14 10 Light Rain SCT028 BKN036 OVC043 47 42     83% 41   29.84 29.83 0    
Apr 05 16:53 NW 16 10 Light Rain BKN029 OVC035 48 38     68% 42   29.81 29.8 0    
Apr 05 15:53 NW 17 10 Light Rain SCT026 BKN031 OVC044 48 40     73% 42   29.77 29.76 0 0  
Apr 05 15:27   9 Clear   48 41     77%     29.75   0    
Apr 05 14:53 WNW 14 10 Clear   49 42     77% 44   29.74 29.73 0    
Apr 05 13:53 WNW 14 10 Cloudy SCT018 BKN023 OVC030 49 42     77% 44   29.72 29.71 0    
Apr 05 12:53 WNW 21 10 Cloudy and Windy SCT014 BKN024 OVC038 49 45     86% 42   29.68 29.67 0   0
Apr 05 12:24 WNW 16 10 Cloudy SCT013 OVC021 48 45     89% 42   29.67   0    
Apr 05 12:11   10 Light Rain BKN012 OVC019 47 45     93%     29.66   0    
Apr 05 11:53 WNW 17 10 Light Rain BKN009 OVC014 48 46     93% 42   29.66 29.64 0    
Apr 05 11:41 W 13 6 Light Rain and Fog/Mist BKN009 BKN023 OVC036 48 47     96% 43   29.65   0    
Apr 05 11:32 WNW 16 2.5 Light Rain and Fog/Mist FEW007 BKN011 OVC034 49 47     93% 43   29.65   0    
Apr 05 11:21 W 15 5 Light Rain and Fog/Mist FEW009 BKN021 OVC032 50 48     93% 45   29.64   0    
Apr 05 10:53 W 16 4 Light Rain and Fog/Mist BKN014 BKN019 OVC026 51 48     89%     29.63 29.62 0    
Apr 05 10:50 W 11 5 Light Rain and Fog/Mist BKN014 OVC026 52 48     87%     29.63   0    
Apr 05 09:53 WSW 13 10 Cloudy OVC017 50 46     86% 45   29.62 29.61      
Apr 05 09:03 W 9 10 Cloudy BKN019 BKN027 OVC047 51 45     79%     29.62        
Apr 05 08:53 W 8 10 Mostly Cloudy SCT021 BKN037 BKN047 52 45     77%     29.62 29.59      
Apr 05 07:53 WSW 8 10 Mostly Cloudy BKN025 BKN036 50 43     77% 47   29.63 29.6      
Apr 05 07:46 WSW 10 10 Mostly Cloudy FEW018 SCT023 BKN036 50 42     74% 46   29.62        
Apr 05 06:53 W 10 10 Cloudy SCT019 BKN025 OVC030 54 49     83%     29.59 29.56     0
Apr 05 06:35 SW 8 10 Mostly Cloudy BKN022 BKN033 BKN045 55 50     83%     29.59        
Apr 05 05:53 WSW 10 10 Clear CLR 54 49     83%     29.58 29.54      
Apr 05 04:53 S 5 10 Clear   54 48     80%     29.56 29.53      
Apr 05 03:53 S 9 10 Clear CLR 55 49     80%     29.56 29.53   0  
Apr 05 02:53 S 8 10 Clear CLR 54 51     90%     29.59 29.56      
Apr 05 01:53 SSE 13 10 Mostly Clear FEW120 55 51     86%     29.62 29.59 0    
Apr 05 00:53 S 7 10 Light Rain BKN070 OVC095 56 50     80%     29.65 29.62 0   1
Apr 05 00:04 WSW 16 10 Light Rain BKN075 OVC095 59 50     72%     29.7   0    
Apr 04 23:53 SW 11 10 Light Rain OVC070 58 52     81%     29.7 29.67 0    
Apr 04 23:48 SW 11 10 Light Rain OVC070 57 52     82%     29.7   0    
Apr 04 23:38 SSW 7 10 Light Rain OVC070 58 52     81%     29.7   0    
Apr 04 23:26 S 7 7 Light Rain OVC070 57 52     83%     29.7   0    
Apr 04 22:53 W 8 6 Thunderstorms and Rain OVC070 57 52     83%     29.67 29.65 0    
Apr 04 21:53 WSW 15 3 Thunderstorms and Heavy Rain and Fog/Mist BKN039 OVC070 56 53     90%     29.65 29.63 1 1  
Apr 04 21:51 SW 10 2.5 Thunderstorms and Heavy Rain and Fog/Mist BKN039 BKN070 OVC080 57 54     88%     29.66   1    
Apr 04 21:41 WSW 17 1.5 Thunderstorms and Heavy Rain and Fog/Mist SCT027 BKN049 OVC090 57 53     87%     29.65   0    
Apr 04 21:34   2 Thunderstorms and Heavy Rain SCT030 BKN070 OVC095 58 52     81%     29.63   0    
Apr 04 20:53 SE 10 10 Thunderstorms FEW085 FEW110 71 54     55%   70 29.6 29.57      
Apr 04 19:53 SE 10 10 Mostly Cloudy BKN070 71 53     53%   70 29.59 29.56      
Apr 04 18:53 SSE 14 10 Partly Cloudy SCT080 73 52     48%   72 29.59 29.57     0
Apr 04 17:53 SSE 14 10 Mostly Clear FEW090 75 52     45%   74 29.61 29.59      
Apr 04 16:53 S 16 10 Clear CLR 78 50     37%   77 29.64 29.61      
Apr 04 15:53 SE 14 10 Clear CLR 77 52     42%   76 29.66 29.63   0  
Apr 04 14:53 SE 13 10 Clear CLR 73 54     51%   72 29.69 29.67      
Apr 04 13:53 ESE 9 10 Mostly Clear FEW120 66 55     68%     29.74 29.71 0    
Apr 04 12:53 S 6 9 Mostly Cloudy FEW060 SCT085 BKN110 68 48     49%     29.8 29.78      
Apr 04 11:53 SE 8 10 Partly Cloudy FEW085 SCT120 69        %     29.79 29.76      
Apr 04 10:53 NE 5 10 Mostly Clear FEW120 66 49     54%     29.81 29.78      
Apr 04 08:53 SE 5 10 Clear CLR 54 51     90%     29.78 29.77      
Apr 04 07:53 Calm 10 Clear CLR 50 49     96%     29.79 29.77      
Apr 04 06:53 Calm 10 Clear CLR 50 48     93%     29.78 29.76      
Apr 04 05:53 SSE 3 10 Clear CLR 48 48     100% 47   29.76 29.74      
Apr 04 04:53 Calm 10 Clear CLR 50 49     96%     29.74 29.72      
Apr 04 03:53 SSE 3 10 Clear CLR 48 47     96% 47   29.73 29.72      
Apr 04 02:53 WSW 3 10 Clear CLR 53 50     89%     29.73 29.71      
Apr 04 01:53 WSW 5 10 Clear CLR 53 50     89%     29.74 29.72      
Apr 04 00:53 W 5 10 Clear CLR 55 50     83%     29.74 29.72      
Apr 03 23:53 W 3 10 Clear CLR 56 50     80%     29.74 29.72      
Apr 03 22:53 SW 3 10 Clear CLR 56 50     80%     29.71 29.7      
Apr 03 21:53 Calm 10 Clear CLR 57 49     74%     29.7 29.68      
Apr 03 20:53 Calm 10 Clear CLR 60 49     67%     29.68 29.66      
Apr 03 19:53 WNW 6 10 Clear CLR 63 49     60%     29.64 29.62      
Apr 03 18:53 W 9 10 Partly Cloudy SCT044 64 51     63%     29.62 29.59     0
Apr 03 17:53 W 11 10 Partly Cloudy FEW037 SCT070 67 52     59%     29.59 29.56      
Apr 03 16:53 WNW 16 10 Partly Cloudy FEW034 SCT065 66 51     59%     29.57 29.54      
Apr 03 15:53 W 17 10 Cloudy SCT030 BKN048 OVC070 63 52     67%     29.55 29.53 0 0  
Apr 03 14:53 W 13 10 Clear   61 52     72%     29.55 29.53 0    
Apr 03 13:53 WSW 16 10 Mostly Clear FEW023 FEW080 62 55     78%     29.53 29.51 0    
Apr 03 13:41 WSW 11 10 Mostly Cloudy SCT021 SCT032 BKN080 60 56     86%     29.53   0    
Apr 03 13:15 WSW 16 8 Cloudy FEW017 BKN025 OVC032 59 53     81%     29.54   0    
Apr 03 12:53 W 14 10 Cloudy SCT023 BKN039 OVC085 60 55     83%     29.53 29.51 0   0
Apr 03 11:53 SW 10 10 Light Rain FEW022 SCT047 BKN060 61 55     81%     29.53 29.51 0    
Apr 03 10:53 WSW 8 10 Light Rain FEW055 BKN070 OVC090 58 54     87%     29.55 29.53 0    
Apr 03 10:31 WSW 10 10 Clear   58 54     87%     29.54   0    
Apr 03 10:08 WSW 10 10 Clear   60 54     80%     29.53   0    
Apr 03 09:53 WSW 11 10 Clear   61 55     81%     29.53 29.51      
Apr 03 09:03 6 10 Clear   59 56     90%     29.53        
Apr 03 08:53 Calm 10 Mostly Cloudy SCT015 BKN022 BKN050 58 57     97%     29.53 29.51      
Apr 03 08:25 SE 8 10 Mostly Cloudy FEW002 BKN019 BKN046 58 58     100%     29.52        
Apr 03 08:13 SE 9 3 Fog/Mist BKN002 OVC017 56 56     100%     29.53        
Apr 03 08:02 SSE 6 2 Fog/Mist BKN002 BKN016 56 56     100%     29.53        
Apr 03 07:55 SSE 3 1.75 Fog/Mist SCT002 BKN018 56 56     100%     29.53        
Apr 03 07:53 SE 5 2 Fog/Mist SCT002 56 56     100%     29.52 29.5      
Apr 03 07:44 SSE 3 9 Partly Cloudy SCT021 55 55     100%     29.52        
Apr 03 06:53 S 5 7 Cloudy FEW002 BKN015 OVC020 55 55     100%     29.52 29.51     0
Apr 03 06:46 S 3 7 Cloudy FEW002 OVC015 55 55     100%     29.52        
Apr 03 06:20 SE 3 2.5 Fog/Mist SCT001 SCT006 OVC015 54 54     100%     29.51        
Apr 03 06:17 SE 5 3 Fog/Mist FEW001 BKN013 OVC019 54 54     100%     29.52        
Apr 03 06:11 SE 3 2 Fog/Mist BKN004 BKN014 OVC019 54 54     100%     29.52        
Apr 03 06:04 ESE 3 1.75 Fog/Mist BKN002 OVC018 54 54     100%     29.52        
Apr 03 05:53 E 3 4 Fog/Mist BKN002 OVC018 54 54     100%     29.52 29.5 0    
Apr 03 05:45 Calm 4 Fog/Mist OVC002 54 54     100%     29.52   0    
Apr 03 05:27 Calm 3 Fog/Mist OVC003 54 54     100%     29.54   0    
Apr 03 05:11 SSE 3 1 Fog/Mist VV003 54 54     100%     29.54   0    
Apr 03 04:53 SE 6 2 Light Rain and Fog/Mist OVC002 54 54     100%     29.55 29.53 0    
Apr 03 04:50 ESE 6 2.5 Light Rain and Fog/Mist OVC002 54 54     100%     29.55   0    
Apr 03 04:38 SE 6 3 Light Rain and Fog/Mist BKN002 OVC006 54 54     100%     29.56   0    
Apr 03 04:22 ESE 5 5 Light Rain and Fog/Mist BKN005 OVC013 54 54     100%     29.55   0    
Apr 03 03:53 E 7 4 Fog/Mist FEW003 OVC012 54 54     100%     29.55 29.53 0 0  
Apr 03 03:35 E 5 3 Light Rain and Fog/Mist SCT004 OVC011 54 54     100%     29.56   0    
Apr 03 03:14 E 5 2.5 Light Rain and Fog/Mist OVC004 55 55     100%     29.58   0    
Apr 03 02:53 ESE 5 2 Light Rain and Fog/Mist OVC002 54 54     100%     29.6 29.57 0    
Apr 03 02:36 SE 6 1.5 Light Rain and Fog/Mist OVC002 54 54     100%     29.6   0    
Apr 03 02:14 ESE 8 2.5 Fog/Mist OVC002 54 54     100%     29.61   0    
Apr 03 01:53 ESE 9 2.5 Fog/Mist OVC003 54 54     100%     29.6 29.57 0    
Apr 03 01:33 ESE 9 2.5 Light Rain and Fog/Mist OVC004 55 55     100%     29.62   0    
Apr 03 00:53 E 9 4 Fog/Mist OVC003 55 55     100%     29.63 29.6     0
Apr 03 00:27 E 7 3 Fog/Mist OVC004 55 55     100%     29.65        
Apr 02 23:53 ESE 9 4 Fog/Mist OVC008 56 55     97%     29.7 29.68      
Apr 02 23:40 ESE 10 8 Cloudy OVC008 56 55     97%     29.7        
Apr 02 23:22 ESE 9 9 Cloudy FEW006 OVC012 56 55     97%     29.71        
Apr 02 22:53 SE 8 7 Cloudy BKN006 OVC016 56 56     100%     29.73 29.71      
Apr 02 22:38 SE 9 8 Cloudy FEW006 OVC016 56 56     100%     29.73        
Apr 02 21:53 SE 9 9 Cloudy BKN019 OVC027 56 56     100%     29.73 29.72   0  
Apr 02 21:36 SE 8 9 Cloudy FEW006 BKN025 OVC031 56 56     100%     29.73        
Apr 02 20:53 SE 7 10 Mostly Cloudy FEW006 BKN033 56 56     100%     29.7 29.69      
Apr 02 20:49 ESE 7 10 Mostly Cloudy SCT006 BKN035 55 55     100%     29.7        
Apr 02 19:53 E 10 10 Mostly Cloudy BKN006 BKN110 57 56     96%     29.69 29.68 0    
Apr 02 18:53 ENE 8 5 Light Rain and Fog/Mist BKN008 BKN065 OVC100 57 57     100%     29.72 29.71 0   0
Apr 02 18:38 ESE 6 5 Rain and Fog/Mist BKN008 OVC090 58 57     97%     29.78   0    
Apr 02 17:53 ESE 10 8 Light Rain FEW034 FEW046 OVC100 59 57     93%     29.78 29.77 0    
Apr 02 16:53 S 16 7 Rain FEW035 BKN080 OVC095 61 57     87%     29.84 29.83 0    
Apr 02 15:53 SE 14 10 Light Rain OVC100 66 54     65%     29.84 29.82 0 0  
Apr 02 14:53 ESE 15 10 Clear CLR 70 52     53%     29.85 29.83      
Apr 02 13:53 SE 17 10 Clear CLR 71 51     49%   70 29.88 29.86      
Apr 02 12:53 ESE 13 10 Clear CLR 68 50     53%     29.91 29.88      
Apr 02 11:53 ESE 13 10 Clear CLR 65 50     58%     29.93 29.91      
Apr 02 10:53 ESE 10 10 Clear CLR 58 48     70%     29.99 29.97      
Apr 02 09:53 ESE 10 10 Clear CLR 54 47     77%     30.01 30      
Apr 02 08:53 ESE 8 10 Clear CLR 51 47     86%     30.05 30.03      
Apr 02 07:53 SE 10 10 Clear CLR 50 47     89% 46   30.05 30.03      
Apr 02 06:53 SSE 11 10 Mostly Clear FEW055 FEW075 49 46     90% 44   30.05 30.03      
Apr 02 05:53 SE 11 10 Mostly Cloudy SCT065 BKN080 BKN110 49 46     90% 44   30.05 30.03      
Apr 02 04:53 SE 14 10 Mostly Cloudy SCT070 BKN110 49 46     90% 44   30.05 30.03      
Apr 02 03:53 SE 10 10 Mostly Cloudy BKN070 BKN110 49 46     90% 45   30.05 30.03      
Apr 02 02:53 SE 11 10 Mostly Clear FEW110 50 48     93% 46   30.05 30.04      
Apr 02 01:53 SE 10 10 Clear CLR 51 48     89%     30.07 30.06      
Apr 02 00:53 ESE 9 10 Mostly Clear FEW030 52 48     86%     30.08 30.07      
Apr 01 23:53   10 Clear CLR 54 48     80%     30.08 30.07      
Apr 01 22:53 ESE 13 10 Clear CLR 56 49     77%     30.09 30.08      
Apr 01 21:53 ESE 8 10 Clear CLR 57 49     74%     30.09 30.09      
Apr 01 20:53 E 9 10 Clear CLR 59 50     72%     30.07 30.06      
Apr 01 19:53 E 8 10 Clear CLR 60 49     67%     30.06 30.05      
Apr 01 18:53 E 9 10 Clear CLR 63 50     63%     30.05 30.05      
Apr 01 17:53 E 13 10 Clear CLR 65 50     58%     30.04 30.03      
Apr 01 16:53 ESE 11 10 Clear   66 50     56%     30.05 30.04      
Apr 01 15:53 SE 11 10 Clear CLR 65 50     58%     30.06 30.05      
Apr 01 14:53 ESE 10 10 Clear CLR 62 49     62%     30.09 30.09      
Apr 01 13:53 SSE 10 10 Mostly Clear FEW018 60 49     67%     30.12 30.11      
Apr 01 13:43 SE 10 10 Mostly Clear FEW017 59 48     67%     30.13        
Apr 01 13:16 E 9 10 Mostly Cloudy BKN016 57 47     69%     30.13        
Apr 01 12:53 E 10 10 Cloudy OVC014 56 47     72%     30.14 30.13      
Apr 01 12:10 SE 10 10 Cloudy OVC010 52 46     80%     30.15        
Apr 01 11:53 ESE 9 10 Cloudy OVC009 50 45     83% 46   30.15 30.15      
Apr 01 10:53 ESE 10 10 Cloudy OVC007 48 45     89% 43   30.16 30.16      
Apr 01 09:53 ESE 15 10 Cloudy OVC008 46 44     93% 40   30.16 30.16      
Apr 01 08:53 ESE 13 10 Cloudy OVC009 45 43     93% 39   30.15 30.15      
Apr 01 08:10 SE 7 10 Cloudy BKN009 OVC013 44 43     96% 40   30.14        
Apr 01 07:53 ESE 8 10 Cloudy OVC010 44 43     96% 40   30.14 30.14      
Apr 01 06:53 ESE 7 10 Cloudy OVC013 44 42     93% 40   30.11 30.1      
Apr 01 06:30 ESE 6 10 Cloudy OVC014 43 42     97% 39   30.1        
Apr 01 05:53 ESE 6 10 Mostly Cloudy FEW008 BKN015 43 42     97% 39   30.09 30.08      
Apr 01 05:48 ESE 6 10 Partly Cloudy SCT008 43 43     100% 39   30.09        
Apr 01 04:53 ESE 6 10 Mostly Clear FEW017 43 42     97% 39   30.08 30.06      
Apr 01 03:53 ESE 5 10 Clear CLR 43 42     97% 40   30.07 30.06      
Apr 01 02:53 E 5 10 Clear CLR 44 42     93% 41   30.06 30.06      
Apr 01 01:53 E 5 10 Clear CLR 45 43     93% 43   30.05 30.05      
Apr 01 00:53 E 3 10 Clear CLR 46 43     89% 45   30.04 30.04      
Mar 31 23:53 E 3 10 Clear CLR 46 43     89% 45   30.03 30.03      
Mar 31 22:53 ENE 6 10 Clear CLR 48 44     86% 45   30.02 30.01      
Mar 31 21:53 ENE 6 10 Clear CLR 50 45     83% 48   29.99 29.99      
Mar 31 20:53 NNE 5 10 Clear CLR 52 45     77%     29.96 29.96      
Mar 31 19:53 NNE 7 10 Clear CLR 54 46     74%     29.94 29.93      
Mar 31 18:53 NNE 8 10 Clear   60 46     60%     29.92 29.91      
Mar 31 17:53 NE 6 10 Clear CLR 62 46     56%     29.91 29.9      
Mar 31 16:53 6 10 Clear CLR 63 46     54%     29.91 29.89      
Mar 31 15:53 NNW 6 10 Clear CLR 61 46     58%     29.9 29.89      
Mar 31 14:53 NNE 9 10 Mostly Clear FEW024 60 46     60%     29.92 29.91      
Mar 31 13:53 7 10 Partly Cloudy SCT021 57 46     67%     29.93 29.92      
Mar 31 12:25 N 3 10 Cloudy OVC015 53 45     74%     29.93        
Mar 31 11:53 6 10 Cloudy OVC012 51 44     77%     29.94 29.94      
Mar 31 10:53 NNW 9 10 Cloudy OVC010 49 44     83% 45   29.94 29.94      
Mar 31 09:53 NW 7 10 Cloudy OVC010 47 43     86% 44   29.91 29.91      
Mar 31 09:20 6 10 Cloudy OVC010 47 43     86% 44   29.91        
Mar 31 08:53 WNW 6 10 Cloudy OVC009 47 43     86% 44   29.9 29.9      
Mar 31 08:35 W 6 10 Cloudy OVC009 46 43     89% 43   29.89        
Mar 31 07:53 NW 5 10 Cloudy OVC010 46 43     89% 44   29.87 29.87      
Mar 31 06:53 WNW 6 10 Cloudy OVC011 46 42     86% 43   29.84 29.84      
Mar 31 05:53 WNW 5 10 Cloudy OVC011 46 42     86% 44   29.82 29.82      
Mar 31 04:53 NW 9 10 Cloudy OVC012 46 43     89% 41   29.8 29.8      
Mar 31 03:53 NW 9 10 Cloudy OVC011 46 43     89% 41   29.78 29.78      
Mar 31 02:53 WNW 14 10 Cloudy OVC013 47 42     83% 41   29.78 29.78      
Mar 31 02:50 WNW 9 10 Cloudy OVC013 46 43     87% 42   29.78        
Mar 31 02:32 WNW 9 10 Cloudy OVC015 47 42     83% 43   29.78        
Mar 31 01:53 NW 10 10 Cloudy OVC014 47 42     83% 42   29.78 29.77      
Mar 31 01:48 WNW 9 10 Cloudy OVC014 46 43     87% 42   29.78        
Mar 31 00:53 WNW 11 10 Cloudy OVC015 47 42     83% 42   29.77 29.77      
Mar 31 00:09 WNW 13 10 Cloudy OVC014 47 43     86% 41   29.77        
Mar 30 23:53 WNW 10 10 Cloudy OVC015 47 43     86% 42   29.77 29.76      
Mar 30 23:18 WNW 9 10 Cloudy OVC015 47 43     86% 43   29.76        
Mar 30 22:53 W 8 10 Cloudy OVC014 47 43     86% 43   29.75 29.75      
Mar 30 21:53 W 9 10 Cloudy OVC014 47 42     83% 43   29.75 29.74      
Mar 30 21:09 W 11 10 Clear   47 42     83% 42   29.73        
Mar 30 20:53 W 13 10 Clear   47 42     83% 41   29.72 29.72      
Mar 30 19:53 W 9 10 Cloudy OVC017 47 42     83% 43   29.71 29.71      
Mar 30 18:53 W 11 10 Cloudy BKN019 OVC024 47 42     83% 42   29.71 29.7     0
Mar 30 17:53 W 11 10 Clear   48 42     80% 43   29.69 29.69      
Mar 30 16:53 W 11 10 Cloudy OVC020 48 42     80% 43   29.68 29.67      
Mar 30 15:53 WSW 9 10 Cloudy FEW020 BKN025 OVC031 49 42     77% 45   29.67 29.65 0 0  
Mar 30 14:53 W 14 10 Cloudy OVC024 49 41     74% 44   29.66 29.65 0    
Mar 30 13:53 SSW 8 10 Cloudy OVC025 49 41     74% 45   29.66 29.65      
Mar 30 12:53 SW 9 10 Cloudy OVC025 50 40     68% 46   29.66 29.64      
Mar 30 11:53 SW 13 10 Clear   49 40     71% 44   29.66 29.65      
Mar 30 10:53 SW 8 10 Cloudy OVC023 49 40     71% 45   29.66 29.65      
Mar 30 09:53 SW 9 10 Cloudy OVC024 48 40     73% 44   29.65 29.63      
Mar 30 08:53 WSW 8 10 Cloudy OVC023 48 40     73% 44   29.66 29.64      
Mar 30 08:31 WSW 10 10 Mostly Cloudy BKN022 48 41     77% 43   29.65        
Mar 30 07:53 W 8 10 Clear CLR 47 42     83% 43   29.65 29.63      
Mar 30 06:53 W 8 10 Partly Cloudy SCT075 50 46     86% 47   29.63 29.61      
Mar 30 05:53 SSW 7 10 Mostly Cloudy FEW060 BKN090 52 48     86%     29.62 29.6      
Mar 30 04:53 W 7 10 Mostly Clear FEW055 FEW070 53 50     89%     29.63 29.6      
Mar 30 03:53 SSW 3 10 Clear CLR 57 51     81%     29.63 29.6      
Mar 30 02:53 S 3 10 Mostly Clear FEW095 56 52     87%     29.65 29.62      
Mar 30 01:53 W 3 10 Cloudy FEW029 OVC033 59 53     81%     29.67 29.64      
Mar 30 01:03 W 7 10 Cloudy BKN030 OVC090 61 53     75%     29.68        
Mar 30 00:53 WSW 10 10 Cloudy FEW030 SCT065 OVC090 62 53     72%     29.69 29.65 0   0
Mar 30 00:36 Calm 10 Cloudy FEW029 BKN065 OVC090 63 57     81%     29.68   0    
Mar 29 23:53 S 6 10 Mostly Cloudy FEW035 FEW045 BKN095 62 61     96%     29.68 29.65 0    
Mar 29 22:53 S 7 10 Cloudy FEW055 BKN070 OVC080 62 61     96%     29.69 29.67 0    
Mar 29 21:53 SE 8 10 Mostly Cloudy FEW060 BKN090 62 61     96%     29.7 29.68   0  
Mar 29 20:53 S 7 10 Mostly Cloudy SCT037 BKN045 BKN060 63 60     90%     29.72 29.7 0    
Mar 29 20:11 S 9 10 Mostly Cloudy SCT060 BKN075 BKN100 64 61     90%     29.71   0    
Mar 29 19:53 S 9 10 Light Rain FEW055 BKN070 BKN090 65 61     87%     29.72 29.69 0    
Mar 29 19:05 S 9 6 Light Rain BKN044 OVC060 67 61     81%     29.72   0    
Mar 29 18:53 S 9 10 Light Rain FEW039 BKN060 OVC075 69 60     73%     29.71 29.68 0   0
Mar 29 17:53 S 16 10 Cloudy SCT045 BKN055 OVC070 72 57     59%   72 29.72 29.69      
Mar 29 16:53 S 10 10 Cloudy FEW045 SCT055 OVC080 70 59     68%     29.73 29.7 0    
Mar 29 15:53 S 13 10 Cloudy OVC045 70 58     66%     29.75 29.72      
Mar 29 14:53 S 14 10 Cloudy OVC045 71 57     61%   71 29.76 29.74      
Mar 29 13:53 SSE 22 10 Mostly Clear and Windy FEW050 73 58     59%   73 29.76 29.73      
Mar 29 13:01 SE 20 10 Partly Cloudy and Windy FEW017 SCT023 SCT028 69 61     75%     29.75        
Mar 29 12:53 SE 17 10 Mostly Cloudy SCT014 BKN020 67 61     81%     29.75 29.72     0
Mar 29 12:16 SE 17 10 Cloudy BKN010 OVC014 65 61     87%     29.79        
Mar 29 11:53 SE 22 10 Cloudy and Windy OVC008 62 60     93%     29.79 29.77 0    
Mar 29 11:07   6 Fog/Mist BKN005 BKN026 BKN120 58 57     97%     29.78   0    
Mar 29 10:53 ESE 16 6 Light Rain and Fog/Mist FEW005 BKN026 OVC120 57 56     96%     29.78   0    
Mar 29 10:45   6 Light Rain and Fog/Mist FEW004 BKN070 OVC120 56 56     100%     29.8   0    
Mar 29 10:38 ESE 14 4 Light Rain and Fog/Mist FEW037 BKN085 OVC110 56 56     100%     29.82   0    
Mar 29 10:11 SE 15 2.5 Rain and Fog/Mist SCT060 OVC080 55 55     100%     29.88   0    
Mar 29 09:53 SE 13 6 Rain and Fog/Mist FEW007 SCT060 BKN070 56 54     93%     29.88 29.86 0 0  
Mar 29 09:40 SE 15 10 Mostly Cloudy SCT007 SCT060 BKN075 56 54     93%     29.87        
Mar 29 08:53 SE 15 9 Cloudy OVC007 55 53     93%     29.85 29.83      
Mar 29 07:53 ESE 16 8 Cloudy OVC007 54 52     93%     29.85 29.83      
Mar 29 07:25 ESE 14 8 Mostly Cloudy BKN009 BKN013 BKN020 53 52     96%     29.86        
Mar 29 07:18 ESE 10 8 Mostly Cloudy BKN011 BKN020 53 52     96%     29.86        
Mar 29 06:53 ESE 10 10 Mostly Clear FEW009 FEW018 53 52     96%     29.86 29.84     0
Mar 29 06:51 ESE 14 10 Mostly Clear FEW009 FEW018 54 52     94%     29.86        
Mar 29 06:44 E 13 10 Mostly Cloudy FEW009 BKN018 53 52     96%     29.85        
Mar 29 06:31 ESE 13 10 Cloudy BKN011 OVC018 54 52     93%     29.87        
Mar 29 05:53 ESE 8 10 Cloudy OVC009 54 52     93%     29.9 29.87      
Mar 29 04:53 E 8 10 Cloudy OVC009 54 52     93%     29.86 29.84      
Mar 29 04:05 SE 10 10 Cloudy OVC009 55 52     89%     29.88        
Mar 29 03:53 ESE 11 10 Cloudy OVC010 55 52     89%     29.88 29.85 0 0  
Mar 29 02:53 SE 15 10 Light Rain OVC010 55 52     89%     29.9 29.88 0    
Mar 29 01:53 ESE 13 10 Cloudy BKN013 BKN036 OVC085 56 53     90%     29.9 29.88 0    
Mar 29 00:53 SE 14 10 Cloudy SCT015 BKN060 OVC090 58 53     84%     29.92 29.91      
Mar 29 00:38 SE 17 10 Cloudy SCT015 BKN050 OVC090 58 53     84%     29.93        
Mar 29 00:17 ESE 15 10 Cloudy BKN016 OVC090 59 54     83%     29.93        
Mar 28 23:53   10 Cloudy SCT041 SCT049 OVC090 59 54     83%     29.93 29.91      
Mar 28 22:53 ESE 13 10 Partly Cloudy FEW032 SCT070 60 54     80%     29.94 29.92      
Mar 28 21:53 ESE 13 10 Cloudy OVC031 62 55     78%     29.94 29.93      
Mar 28 20:53 ESE 15 10 Mostly Cloudy BKN045 63 54     72%     29.93 29.91      
Mar 28 19:53 E 9 10 Mostly Cloudy BKN037 BKN045 65 53     65%     29.94 29.92      
Mar 28 18:53 E 13 10 Clear CLR 67 53     61%     29.92 29.91      
Mar 28 17:53 ESE 14 10 Clear CLR 70 53     55%     29.91 29.88      
Mar 28 16:53 ESE 9 10 Clear CLR 70 54     57%     29.91 29.89      
Mar 28 15:53 ESE 11 10 Clear CLR 69 54     59%     29.93 29.91      
Mar 28 14:53 SE 9 10 Clear CLR 66 53     63%     29.96 29.94      
Mar 28 14:08 SSE 9 10 Mostly Clear FEW023 64 53     67%     30        
Mar 28 13:53 ESE 5 10 Mostly Cloudy BKN023 63 53     70%     30.01 29.99      
Mar 28 12:53 ESE 9 10 Cloudy OVC018 59 52     78%     30.04 30.02      
Mar 28 12:13 SE 7 10 Cloudy BKN016 OVC024 59 52     78%     30.05        
Mar 28 11:53 ESE 7 10 Cloudy BKN014 OVC019 58 52     81%     30.05 30.03      
Mar 28 11:03 SE 8 10 Cloudy OVC013 56 51     84%     30.05        
Mar 28 10:53 SSE 7 10 Cloudy BKN015 OVC020 56 50     80%     30.05 30.04